Temp
9 9 9 9 9 10 10 10 10 10 10 10 10 10 11 11 11 11 11 11 11 11 11 11 11 11 11 11 11 11 11 11 11 11 12 12 12 12 12 12 12 12 12 12 12 12 12 12 12 12 13 13 12 12 12 12 12 11 11 11 11 11 11 11 12 12 12 13 13 13 14 14 14 14 14 14 13 13 13 12 12 12 12 12 12 12
9 9 9 9 9 9 9 9 10 10 10 10 10 10 10 10 10 10 10 10 10 10 10 10 11 11 11 11 11 11 11 11 11 12 12 12 12 12 12 12 12 12 12 12 12 12 12 12 12 12 12 12 12 12 12 12 12 12 11 11 11 11 11 11 11 11 12 12 12 13 13 14 14 14 14 14 14 13 13 13 12 12 12 12 12 12
8 8 8 9 9 9 9 9 9 9 9 9 9 9 10 10 10 10 10 10 10 10 10 10 11 11 11 11 11 11 11 11 11 12 12 12 12 12 12 12 12 12 12 12 12 12 12 12 12 12 12 12 12 12 12 12 12 12 12 11 11 11 11 11 11 11 11 12 12 12 13 13 14 14 14 14 14 13 13 13 13 12 12 12 12 12
8 8 8 8 8 8 8 8 8 9 9 9 9 9 9 9 9 10 10 10 10 10 10 10 10 10 10 10 11 11 11 11 11 11 11 11 11 11 12 12 12 12 12 12 12 12 12 12 12 12 12 12 12 12 12 12 12 12 12 11 11 11 11 11 11 11 11 11 11 12 12 13 13 14 14 14 14 13 13 13 13 13 12 12 12 11
7 7 7 7 7 7 8 8 8 8 9 9 9 9 9 9 9 9 9 9 9 9 10 10 10 10 10 10 10 11 11 11 11 11 11 11 11 11 11 11 12 12 12 12 12 12 12 12 12 12 12 12 12 12 12 12 12 12 11 11 11 11 11 11 11 11 11 11 11 11 12 12 13 13 14 14 14 14 13 13 13 13 12 12 11 11
6 6 6 6 6 7 7 7 8 8 8 8 9 9 9 9 9 9 9 9 9 9 9 9 9 9 10 10 10 11 11 11 11 10 10 10 10 11 11 11 11 11 12 12 12 12 12 12 12 12 12 12 12 12 12 12 12 12 11 11 11 11 11 11 11 11 11 11 11 11 11 12 12 12 13 13 14 14 13 13 13 13 12 12 11 11
5 5 5 5 6 6 6 7 7 7 8 8 8 8 8 8 8 8 8 8 8 9 9 9 9 10 10 10 10 11 11 10 10 10 10 10 11 11 11 11 11 11 11 11 12 12 12 12 12 12 12 12 11 11 11 11 11 11 11 11 11 11 11 11 11 11 11 11 11 11 11 11 11 12 12 13 13 13 13 13 13 13 12 11 11 11
5 5 5 5 5 5 6 6 6 7 7 7 7 7 7 7 7 8 8 8 8 9 9 9 9 10 10 10 10 10 10 10 10 10 10 10 11 11 11 11 11 11 11 12 12 12 12 12 12 12 12 11 11 11 11 11 11 11 11 11 11 11 11 11 11 11 11 11 11 11 11 11 11 11 12 12 13 13 13 13 13 13 12 11 11 11
4 4 5 5 5 5 6 6 6 6 6 6 6 6 7 7 7 7 8 8 8 9 9 9 9 9 9 9 9 9 9 10 10 10 10 10 10 10 11 11 11 11 11 12 12 12 12 12 12 12 11 11 11 11 11 11 11 11 11 11 11 11 11 11 11 11 11 11 11 11 11 11 11 11 12 12 12 13 13 13 13 13 12 11 11 11
4 4 4 5 5 5 5 6 6 6 6 6 6 6 6 6 7 7 7 8 8 8 8 8 8 8 8 9 9 9 9 10 10 10 10 10 10 10 10 10 11 11 11 11 11 11 11 11 11 11 11 11 11 11 11 11 11 11 11 11 11 11 11 11 11 11 11 11 11 11 11 11 11 11 11 12 12 12 12 13 13 13 12 11 11 11
4 4 4 5 5 5 5 5 6 6 6 6 6 6 6 7 7 7 7 7 7 7 7 8 8 8 8 9 9 9 9 9 9 10 10 10 10 10 10 10 10 10 10 11 11 11 11 11 11 11 10 10 10 10 10 10 10 10 10 10 10 10 11 11 11 11 11 11 11 11 11 11 11 11 11 11 11 11 11 12 12 12 11 11 11 11
4 4 4 4 5 5 5 5 5 5 5 6 6 6 6 6 7 6 6 6 7 7 7 7 7 8 8 8 8 9 9 9 9 9 9 9 10 10 10 10 10 10 10 10 11 11 11 10 10 10 10 10 10 10 10 10 10 10 10 10 10 10 10 10 11 11 11 11 11 11 11 11 11 11 11 11 11 11 11 11 11 11 11 11 11 11
4 4 4 4 4 5 5 5 5 5 5 5 5 6 6 6 6 6 6 6 6 6 7 7 7 7 8 8 8 8 8 8 8 8 9 9 9 9 9 9 9 10 10 10 10 10 10 10 10 10 10 10 10 10 10 10 10 9 9 9 10 10 10 10 10 11 11 11 11 11 11 11 11 11 11 11 12 12 12 11 11 11 11 11 11 10
3 3 4 4 4 4 4 4 5 5 5 5 5 5 5 5 5 5 5 5 6 6 6 6 7 7 7 7 8 8 8 8 9 9 9 9 9 9 9 9 10 10 10 10 10 10 10 10 10 10 10 10 10 10 9 9 9 9 9 9 9 9 10 10 10 10 10 11 11 11 11 11 11 11 11 11 11 12 12 11 11 11 11 11 10 10
3 3 3 3 3 4 4 4 4 4 4 4 5 5 5 5 5 5 5 5 6 6 6 6 6 7 7 7 7 7 8 8 9 9 9 9 9 9 9 9 9 10 10 9 9 9 10 10 9 9 9 9 9 9 9 9 9 9 9 9 9 9 9 10 10 10 10 10 10 10 10 11 11 11 11 11 11 11 11 11 11 11 11 10 10 9
3 3 3 3 3 3 3 4 4 4 4 4 4 4 4 4 5 5 5 5 5 6 6 6 6 6 6 7 7 7 8 8 8 8 8 8 8 9 9 8 8 8 9 9 9 9 9 9 9 9 9 9 9 9 9 9 9 9 9 9 9 9 9 9 10 10 10 10 10 10 10 11 11 11 11 11 11 11 11 11 11 10 10 10 9 9
2 2 2 2 3 3 3 3 3 4 4 4 4 4 4 4 4 5 5 5 5 5 5 5 6 6 6 7 7 8 8 7 7 7 7 7 8 8 8 8 8 8 8 8 9 9 9 9 9 9 9 9 9 9 9 9 9 9 9 9 9 9 9 9 9 10 10 10 10 10 10 10 11 11 11 11 11 11 11 10 10 10 10 9 9 9
2 2 2 2 2 3 3 3 3 3 3 4 4 4 4 4 4 4 5 5 5 5 5 5 6 6 6 7 7 8 7 7 6 6 7 7 7 8 8 8 8 8 8 8 8 9 9 9 9 9 9 9 9 9 9 9 9 9 9 9 9 9 9 9 9 10 10 10 10 10 10 10 10 10 10 11 11 11 10 10 10 10 9 9 9 8
2 2 2 2 2 3 3 3 3 3 3 3 4 4 4 4 4 4 4 4 5 4 5 5 5 6 6 6 7 7 7 6 6 6 6 7 7 7 7 8 8 8 8 8 8 8 8 8 8 8 8 8 9 9 9 9 9 9 9 9 9 9 9 9 9 9 9 10 10 10 10 10 10 10 10 10 10 10 10 10 9 9 9 9 8 8
1 2 2 2 2 2 3 3 3 3 3 3 3 4 4 4 4 4 4 4 4 5 5 5 5 5 6 6 6 6 6 6 6 6 6 6 7 7 7 7 7 7 7 8 8 8 8 8 8 8 8 8 8 8 8 8 8 9 8 8 8 8 9 9 9 9 9 9 9 9 9 10 10 10 10 10 10 10 10 9 9 9 8 8 8 7
1 1 2 2 2 2 3 3 3 3 3 3 3 3 3 4 4 4 4 4 4 4 5 5 5 5 6 6 6 6 6 6 5 5 6 6 6 7 7 7 7 7 7 7 7 8 8 8 8 8 8 8 8 8 8 8 8 8 8 8 8 8 8 9 9 9 9 9 9 9 9 9 10 10 10 10 10 10 9 9 8 8 8 7 7 7
1 1 1 2 2 2 2 3 3 3 3 3 3 3 3 3 4 4 4 4 4 4 5 5 5 5 5 5 5 5 5 5 5 5 6 6 6 7 7 7 7 7 7 7 7 7 8 8 8 8 8 8 7 7 7 7 7 7 7 7 8 8 8 8 8 8 9 9 9 9 9 9 9 10 10 10 9 9 8 8 8 7 7 7 6 6
0 1 1 1 2 2 2 2 2 2 2 2 3 3 3 3 3 3 3 3 4 4 4 4 4 4 4 5 5 5 5 5 5 5 5 6 6 7 7 7 7 7 7 7 7 7 7 7 7 7 7 7 7 6 6 6 6 7 7 7 7 7 7 8 8 8 8 8 8 9 9 9 9 10 9 9 9 8 8 7 7 6 6 6 5 5
0 1 1 1 2 2 2 2 2 2 2 2 2 2 2 2 2 2 2 3 3 3 3 3 4 4 4 4 5 5 5 5 5 5 5 6 6 7 7 7 7 6 7 7 7 7 7 7 7 7 6 6 6 6 6 6 6 6 6 6 6 7 7 7 7 8 8 8 8 8 9 9 9 9 9 8 8 7 7 6 6 6 5 5 5 5
1 1 1 1 1 1 1 2 2 2 2 1 2 2 2 2 2 2 2 2 2 2 3 3 3 4 4 5 5 5 5 5 5 5 5 6 6 6 7 7 7 6 7 7 7 6 6 6 6 6 5 5 5 5 5 5 5 5 6 6 6 6 7 7 7 8 8 8 8 8 9 9 9 8 8 7 7 6 6 5 5 5 5 4 4 4
1 1 1 1 1 1 2 2 1 1 1 1 1 1 1 1 1 2 2 2 2 3 3 3 3 4 4 5 5 5 5 5 5 5 5 5 5 6 6 7 6 6 6 7 6 5 5 5 4 4 4 4 4 4 4 5 5 5 6 6 6 7 7 7 7 7 8 8 8 8 8 8 8 7 6 6 6 5 5 5 4 4 4 4 4 3
1 1 1 1 1 1 1 1 1 1 1 1 1 1 1 1 1 2 2 3 3 3 3 3 3 3 4 3 4 4 4 4 4 4 4 5 5 5 6 6 5 5 5 6 5 4 3 3 3 3 3 3 4 4 4 5 5 5 6 6 6 6 7 7 7 7 8 8 8 8 7 7 6 6 5 5 5 4 4 4 4 3 3 3 3 3
1 1 1 1 1 1 1 1 1 1 1 1 1 1 1 1 1 1 2 2 3 3 3 3 3 3 3 3 3 3 3 3 3 4 4 4 5 5 5 4 3 3 4 4 4 3 2 2 2 2 2 3 3 4 4 5 5 6 6 6 6 6 7 7 7 7 8 8 7 7 6 6 5 5 4 4 4 4 4 3 3 3 3 2 2 2
1 1 1 0 0 0 0 0 0 0 0 0 1 1 1 1 1 1 2 2 2 2 2 2 2 2 2 2 2 2 2 3 3 3 4 4 4 4 3 3 3 3 3 3 2 2 1 1 1 1 2 2 3 4 4 5 5 6 6 6 6 7 7 7 7 7 7 7 6 6 5 5 4 4 4 4 4 3 3 3 3 2 2 2 1 1
0 0 0 0 0 0 0 0 0 0 0 0 0 1 1 1 1 1 1 1 1 1 1 1 1 1 1 1 1 2 2 2 3 3 3 3 3 3 2 3 3 3 3 2 1 -0 -0 0 0 0 1 1 2 3 4 5 5 6 6 6 6 6 7 7 6 6 6 5 5 5 4 4 4 4 4 3 3 3 3 2 2 2 1 1 1 1
0 0 0 0 0 0 0 -0 -0 -0 0 0 0 0 0 0 0 1 1 1 1 0 0 0 0 0 0 1 1 1 2 2 3 3 2 3 3 3 3 3 3 3 3 2 1 0 -0 -0 0 0 0 0 1 2 3 4 4 5 5 5 5 5 6 6 5 5 5 5 4 4 4 4 4 4 3 3 3 3 2 2 2 1 1 1 1 1
-0 -0 -0 -0 0 0 -0 -0 -0 -0 -0 -0 -0 -0 0 0 0 0 1 0 0 -0 -1 -0 -0 -0 -0 0 0 1 1 1 2 2 2 2 2 3 3 3 3 3 3 2 1 0 -0 -0 -1 -0 0 0 1 1 2 2 3 4 4 4 5 5 5 5 5 4 4 4 4 4 4 4 3 3 3 3 2 2 2 2 1 1 1 1 1 1
-0 -0 -0 -0 -0 0 -0 -0 -0 -0 -0 -0 -0 -0 -0 -0 -0 0 0 -0 -1 -1 -1 -1 -1 -1 -1 -1 -0 -0 0 0 1 1 1 1 2 2 2 3 3 3 2 1 0 -1 -1 -1 -1 -1 -1 -1 -0 -0 1 1 2 3 3 4 4 4 4 4 4 4 4 4 4 3 3 3 3 3 2 2 2 2 2 1 1 1 1 0 0 0
-1 -0 -0 -0 -0 0 -0 -0 -0 -0 -0 -0 -1 -1 -1 -1 -0 -0 -1 -1 -1 -1 -2 -2 -2 -2 -1 -1 -1 -1 -0 -0 -0 0 0 0 1 1 2 2 2 2 2 0 -1 -2 -2 -2 -2 -1 -1 -1 -1 -1 -1 -0 1 2 2 3 3 3 3 3 3 3 3 3 3 3 2 2 2 2 2 2 2 2 1 1 1 1 0 0 0 0
-1 -1 -0 -0 -0 -0 -0 -0 -0 -0 -1 -1 -1 -1 -1 -1 -1 -1 -1 -1 -2 -2 -2 -2 -2 -2 -2 -2 -1 -1 -1 -1 -1 -1 -1 -1 -0 0 1 1 1 2 2 0 -1 -1 -2 -2 -1 -1 -1 -2 -2 -2 -2 -1 -0 1 1 2 2 2 3 3 3 2 2 2 2 2 2 2 2 1 1 1 1 1 1 1 1 0 0 0 0 0
-1 -1 -0 -0 -0 -0 -0 -0 -0 -1 -1 -1 -1 -1 -1 -1 -1 -1 -2 -2 -2 -2 -2 -2 -3 -3 -3 -2 -2 -2 -2 -2 -2 -2 -2 -2 -2 -1 -1 0 1 1 1 1 0 -0 -1 -1 -1 -0 -1 -2 -2 -3 -3 -2 -1 -0 1 1 1 1 2 2 2 2 2 1 1 1 1 1 1 1 1 1 1 1 1 1 0 0 0 0 0 0
-1 -0 -0 -0 -0 -0 -1 -1 -1 -1 -1 -1 -1 -1 -1 -1 -2 -2 -2 -2 -2 -2 -3 -3 -3 -3 -3 -3 -3 -3 -2 -3 -3 -3 -3 -3 -3 -2 -2 -1 -0 0 1 1 1 0 -0 -0 -0 -1 -1 -2 -2 -3 -4 -2 -1 -1 -0 0 0 1 1 1 1 1 1 1 1 1 1 1 1 1 1 1 1 1 1 1 0 0 0 0 0 0
-1 -0 -0 -0 -0 -1 -1 -1 -1 -1 -1 -1 -1 -2 -2 -2 -2 -2 -2 -2 -2 -3 -3 -3 -3 -3 -3 -3 -3 -3 -3 -3 -4 -4 -4 -4 -3 -3 -2 -1 -1 -0 0 1 1 1 0 -0 -1 -1 -1 -2 -2 -3 -3 -2 -2 -2 -2 -1 -0 -0 0 0 1 1 1 0 0 0 1 1 1 1 1 1 1 1 1 0 0 0 0 0 0 0
-1 -0 -0 -0 -0 -1 -1 -1 -1 -1 -1 -1 -2 -2 -2 -2 -2 -2 -2 -3 -3 -3 -3 -3 -3 -3 -3 -3 -3 -3 -4 -4 -4 -4 -4 -4 -4 -3 -3 -2 -1 -0 -0 0 0 0 0 -0 -1 -1 -1 -2 -2 -3 -3 -2 -3 -3 -3 -2 -2 -1 -1 -0 0 0 0 0 0 0 0 0 1 1 1 1 1 1 1 0 0 0 -0 -0 -0 -0
-1 -1 -0 -1 -1 -1 -1 -1 -1 -1 -2 -2 -2 -2 -2 -2 -2 -2 -3 -3 -3 -3 -3 -3 -3 -3 -3 -3 -3 -4 -4 -4 -4 -4 -4 -4 -4 -3 -3 -2 -1 -1 -0 -0 -0 -0 -0 -0 -1 -1 -1 -2 -2 -2 -3 -3 -3 -3 -3 -2 -3 -3 -2 -1 -1 -0 -0 -0 -0 -0 0 0 0 0 1 1 1 1 0 0 0 -0 -0 -0 -0 -0
-1 -1 -1 -1 -1 -1 -1 -1 -1 -2 -2 -2 -2 -2 -2 -2 -3 -3 -3 -3 -3 -3 -3 -3 -3 -3 -3 -3 -3 -4 -4 -5 -5 -5 -5 -4 -4 -3 -3 -2 -1 -1 -1 -1 -1 -1 -1 -1 -1 -1 -1 -2 -2 -2 -2 -3 -3 -2 -2 -2 -4 -5 -4 -2 -2 -1 -1 -0 -0 -0 -0 0 0 0 0 0 0 0 0 0 0 -0 -0 -0 -0 -0
-1 -1 -1 -1 -1 -1 -1 -2 -2 -2 -2 -2 -2 -2 -2 -3 -3 -3 -3 -3 -3 -3 -3 -3 -3 -3 -3 -4 -4 -4 -4 -5 -5 -5 -5 -4 -4 -3 -3 -2 -2 -1 -1 -1 -1 -1 -1 -1 -1 -1 -2 -2 -2 -2 -3 -3 -2 -2 -2 -3 -5 -5 -4 -3 -2 -2 -1 -1 -1 -0 -0 -0 -0 -0 -0 0 0 0 0 0 0 -0 -0 -0 -0 -0
-1 -1 -1 -1 -1 -2 -2 -2 -2 -2 -2 -2 -2 -2 -3 -3 -3 -3 -3 -3 -3 -3 -3 -3 -3 -3 -4 -4 -4 -4 -4 -4 -5 -5 -5 -5 -4 -4 -3 -3 -2 -2 -2 -2 -2 -2 -2 -2 -2 -2 -2 -2 -2 -2 -3 -3 -3 -3 -4 -4 -4 -4 -4 -5 -4 -3 -2 -1 -1 -1 -1 -1 -1 -1 -1 -0 -0 -0 -0 -0 -0 -0 -0 -0 -0 -0
-2 -2 -2 -2 -2 -2 -2 -2 -2 -2 -2 -2 -2 -2 -3 -3 -3 -3 -3 -3 -3 -3 -3 -4 -4 -4 -4 -4 -4 -4 -4 -4 -5 -5 -5 -5 -5 -5 -4 -4 -3 -3 -3 -2 -3 -3 -3 -4 -4 -3 -3 -2 -2 -2 -3 -3 -4 -4 -4 -4 -3 -3 -4 -5 -5 -4 -3 -2 -2 -2 -1 -1 -1 -1 -1 -1 -1 -1 -1 -0 -0 -0 -0 0 -0 -0
-2 -2 -2 -2 -2 -2 -2 -2 -2 -2 -2 -2 -3 -3 -3 -3 -3 -3 -3 -4 -4 -4 -4 -4 -4 -4 -4 -4 -4 -4 -4 -5 -5 -5 -5 -5 -5 -5 -5 -5 -4 -4 -4 -4 -4 -4 -4 -5 -5 -4 -3 -3 -3 -3 -3 -4 -4 -4 -4 -4 -5 -6 -6 -6 -5 -4 -4 -3 -3 -2 -2 -1 -1 -2 -2 -2 -2 -2 -1 -1 -1 -0 -0 -0 -0 -0
-2 -2 -2 -2 -2 -2 -2 -2 -2 -2 -3 -3 -3 -3 -3 -3 -3 -3 -4 -4 -4 -4 -4 -4 -4 -4 -4 -4 -4 -4 -5 -5 -5 -5 -5 -6 -6 -6 -5 -5 -5 -5 -5 -5 -5 -5 -5 -5 -5 -4 -4 -4 -4 -4 -4 -4 -5 -5 -6 -6 -6 -6 -6 -6 -5 -4 -4 -4 -3 -3 -2 -2 -1 -2 -3 -3 -3 -2 -2 -1 -1 -1 -0 -0 -0 -0
-3 -2 -2 -2 -2 -2 -2 -2 -2 -3 -3 -3 -3 -3 -3 -3 -3 -4 -4 -4 -4 -4 -4 -4 -4 -4 -4 -4 -4 -4 -5 -5 -5 -5 -6 -6 -6 -6 -6 -6 -6 -5 -5 -5 -5 -5 -5 -5 -5 -4 -4 -4 -5 -5 -6 -5 -5 -6 -6 -6 -6 -6 -6 -7 -6 -5 -4 -3 -3 -3 -3 -2 -2 -3 -4 -4 -3 -3 -2 -2 -1 -1 -1 -1 -1 -1
-3 -3 -3 -2 -2 -2 -2 -2 -3 -3 -3 -3 -3 -3 -3 -3 -3 -4 -4 -4 -4 -4 -4 -4 -4 -4 -4 -4 -4 -4 -5 -5 -5 -5 -6 -6 -6 -6 -6 -6 -6 -6 -5 -5 -5 -5 -5 -5 -5 -5 -5 -5 -5 -6 -6 -6 -6 -6 -6 -6 -6 -6 -7 -7 -7 -5 -4 -3 -3 -3 -3 -2 -3 -4 -4 -4 -4 -4 -3 -3 -2 -2 -1 -1 -1 -1
-3 -3 -3 -3 -2 -2 -3 -3 -3 -3 -3 -3 -3 -3 -3 -3 -3 -3 -4 -4 -4 -4 -4 -4 -4 -4 -4 -4 -4 -5 -5 -5 -5 -6 -6 -6 -6 -6 -6 -6 -5 -5 -5 -5 -5 -5 -5 -5 -5 -5 -5 -5 -6 -6 -7 -7 -7 -7 -6 -6 -6 -7 -7 -8 -7 -6 -5 -4 -3 -3 -3 -2 -3 -3 -3 -4 -5 -5 -5 -4 -3 -2 -2 -2 -1 -1
-3 -3 -3 -3 -3 -3 -3 -3 -3 -3 -3 -3 -3 -3 -3 -3 -4 -4 -4 -4 -4 -4 -4 -4 -4 -4 -4 -4 -5 -5 -5 -5 -6 -6 -6 -6 -6 -6 -6 -6 -5 -5 -5 -5 -5 -5 -5 -5 -5 -6 -6 -6 -6 -7 -7 -8 -8 -7 -7 -7 -7 -7 -7 -8 -7 -6 -5 -4 -4 -3 -3 -3 -3 -3 -3 -4 -5 -6 -5 -5 -4 -3 -3 -2 -2 -2
-3 -3 -3 -3 -3 -3 -3 -3 -3 -3 -3 -3 -3 -3 -4 -4 -4 -4 -4 -4 -4 -4 -4 -4 -4 -4 -4 -4 -5 -5 -5 -6 -6 -6 -6 -6 -6 -6 -6 -6 -6 -6 -5 -5 -6 -6 -6 -6 -6 -6 -6 -6 -6 -6 -7 -7 -7 -7 -8 -8 -8 -7 -8 -8 -7 -7 -6 -5 -5 -4 -4 -4 -4 -4 -4 -4 -6 -6 -6 -6 -5 -5 -4 -3 -3 -2
Height
636 633 631 630 628 625 622 621 620 618 615 613 612 610 608 607 606 604 603 602 601 599 597 596 594 592 591 590 589 589 588 587 586 586 585 583 582 581 579 579 578 578 577 578 578 578 578 578 578 578 578 577 577 577 577 578 579 579 580 581 581 582 582 583 584 585 586 586 587 588 588 589 589 590 591 592 594 595 596 598 599 601 604 606 607 610
635 632 630 629 627 624 621 619 619 617 615 612 610 609 607 605 604 602 601 600 598 597 595 593 591 590 588 587 586 585 584 584 583 582 581 580 579 577 576 575 575 574 574 574 574 574 574 574 575 575 575 575 574 574 574 574 574 575 576 576 576 577 578 579 580 581 581 582 583 584 585 585 586 586 587 588 590 591 592 594 595 597 599 601 603 606
634 631 629 627 626 624 621 619 617 616 615 612 610 608 606 604 602 600 599 597 596 594 593 591 589 587 585 584 582 582 581 581 580 579 577 576 576 574 573 572 572 571 571 571 571 571 571 571 571 571 571 571 571 571 571 571 571 571 571 571 572 572 573 574 575 576 577 578 579 580 581 581 581 582 583 584 585 586 588 589 591 593 595 597 600 602
634 631 628 627 625 623 621 619 617 615 614 611 609 607 605 603 601 598 597 595 594 592 590 589 586 584 582 580 579 578 578 577 576 575 574 573 572 571 571 570 569 569 568 568 568 568 567 568 568 568 568 568 567 567 567 567 567 567 567 567 568 568 569 570 571 572 573 574 575 576 576 577 577 578 579 580 581 582 584 585 587 589 591 594 597 600
635 632 629 627 625 622 620 618 616 614 612 610 608 606 604 601 599 596 595 593 591 590 588 586 584 582 580 578 576 576 575 574 572 571 571 570 569 569 568 568 567 566 566 565 565 565 564 564 564 564 564 564 564 564 564 564 564 564 564 564 564 564 565 565 566 567 569 570 571 572 573 573 573 574 575 576 577 578 579 581 582 585 587 590 594 597
634 633 630 628 626 622 619 617 616 614 611 608 606 604 602 600 598 596 593 591 590 588 586 584 582 580 578 576 575 573 572 571 570 569 568 567 567 566 566 566 565 564 564 563 562 561 561 561 561 561 560 560 560 560 560 561 561 561 560 560 560 560 561 561 562 563 564 565 566 568 569 570 570 570 571 571 573 574 575 576 578 580 583 587 590 593
633 632 630 628 625 622 620 617 615 613 611 608 605 602 601 599 597 595 593 591 588 586 583 581 579 577 576 574 572 571 570 569 567 567 566 565 564 564 563 563 562 561 561 560 559 559 558 558 557 557 556 556 557 557 557 557 557 557 557 557 557 557 557 557 558 559 560 561 562 564 565 566 567 567 567 567 568 569 571 572 574 576 579 583 586 589
632 630 629 627 624 621 618 616 614 612 611 608 605 602 599 597 595 593 591 589 586 584 581 578 576 574 573 571 570 568 567 566 565 564 563 562 562 561 560 559 559 558 557 556 556 555 555 554 554 553 553 553 553 553 554 554 554 554 554 553 553 553 553 554 554 555 556 557 558 560 561 562 563 564 564 564 564 565 566 568 570 572 576 580 583 586
632 629 627 625 623 620 616 613 611 611 610 608 605 602 599 596 592 590 588 586 584 582 580 577 575 572 571 570 568 567 566 565 564 562 561 560 559 558 557 556 555 554 554 553 552 552 551 551 551 550 550 550 550 550 550 551 551 551 550 550 550 550 550 550 551 551 552 553 554 555 557 558 560 560 561 561 560 561 561 563 565 568 572 576 579 582
631 629 626 623 621 619 616 611 609 608 608 606 604 602 599 596 592 588 585 582 581 580 579 577 574 571 569 568 567 566 565 563 561 561 559 558 556 556 554 553 552 551 550 550 549 549 548 548 547 547 547 547 547 547 547 547 547 547 547 547 547 547 546 546 547 547 548 549 550 551 552 553 555 556 557 557 558 558 558 559 561 563 567 571 575 577
628 626 624 621 618 616 615 611 608 606 606 604 602 600 598 596 592 589 585 581 579 578 577 576 574 571 568 566 564 563 562 561 559 557 556 555 553 552 551 550 549 548 547 546 546 545 545 544 544 544 544 544 544 544 544 544 544 544 544 544 544 544 543 543 543 544 544 545 546 547 548 549 550 552 553 554 555 555 556 556 557 560 564 568 571 573
626 624 622 619 617 614 612 610 607 606 604 602 600 597 595 594 592 590 586 582 579 576 574 572 571 569 567 565 562 560 559 557 556 554 552 551 550 550 548 547 546 545 544 544 543 542 541 541 541 541 541 541 541 541 541 541 541 541 541 541 541 540 540 540 540 540 541 541 542 543 544 545 546 547 549 550 551 552 553 554 555 558 562 565 567 569
625 623 620 617 615 613 610 608 606 604 602 601 599 596 593 591 591 589 586 583 579 576 573 570 567 566 565 563 561 559 557 556 553 551 550 548 547 546 546 544 543 542 542 541 540 538 538 538 538 538 538 538 538 538 538 538 538 538 538 537 537 537 537 537 537 537 537 538 538 539 540 541 541 543 545 546 547 548 549 551 553 556 559 561 563 565
623 621 618 616 613 611 609 607 605 602 601 599 597 595 592 590 589 587 585 581 578 575 572 569 566 563 562 561 561 559 557 554 551 549 547 545 543 543 542 541 540 539 539 537 536 535 535 535 535 535 535 536 536 536 535 535 535 535 534 534 534 534 534 534 534 534 534 534 535 535 536 536 538 539 540 542 543 545 546 547 549 551 555 557 560 561
621 619 616 613 611 609 607 606 603 601 599 597 595 593 591 589 587 585 583 579 575 573 571 567 564 561 560 559 559 558 556 553 549 546 543 541 540 540 539 538 537 536 535 534 533 532 532 533 533 533 532 532 532 532 532 532 532 531 531 530 530 530 530 531 531 531 531 531 531 532 533 533 534 535 536 538 539 541 542 544 545 548 551 553 556 558
620 618 615 611 609 607 605 604 602 599 596 595 593 591 589 586 585 583 581 577 574 571 569 566 563 559 556 555 556 556 554 551 547 545 542 540 539 538 538 537 536 534 533 532 531 531 531 531 531 530 530 530 529 530 530 529 528 528 527 527 527 527 527 527 527 528 528 528 529 530 530 531 531 532 533 534 535 537 538 540 542 545 547 550 553 556
618 616 613 610 607 605 603 601 600 597 594 592 590 589 587 584 582 580 578 576 573 571 568 566 563 558 553 550 551 552 552 550 547 545 542 539 538 538 538 537 535 533 532 531 531 530 529 529 528 528 527 527 527 527 526 526 525 525 524 524 524 524 524 524 524 525 525 526 526 527 527 528 528 529 530 531 531 533 535 537 540 542 545 548 552 555
616 614 612 609 606 603 601 599 596 594 592 590 588 586 584 582 580 578 576 574 572 569 566 564 562 558 553 549 547 548 550 550 548 545 543 539 536 536 537 537 536 533 531 530 529 528 527 526 526 525 525 525 525 524 524 523 522 522 521 521 521 521 521 521 521 521 522 522 523 523 524 524 525 526 526 527 528 529 531 534 536 539 542 546 550 553
614 612 610 607 604 601 598 596 594 591 590 587 585 583 580 578 576 575 573 571 569 567 564 561 558 555 552 548 546 546 549 551 550 547 543 538 535 533 535 535 534 531 529 527 526 526 525 524 523 523 522 522 522 521 521 520 520 519 518 518 517 517 517 518 518 518 519 519 520 520 521 521 521 522 523 524 525 526 528 531 533 536 539 542 546 549
612 610 608 605 602 598 595 593 591 589 587 585 582 580 577 575 573 571 569 568 566 564 561 559 556 552 551 548 545 545 547 549 548 545 541 536 531 530 531 531 530 527 525 524 523 523 522 522 521 520 520 519 519 518 518 517 516 516 515 515 515 515 515 515 516 516 516 517 517 517 518 518 518 519 519 520 521 523 525 528 531 534 537 540 543 546
610 606 604 602 600 596 592 589 588 586 585 583 581 578 575 573 571 568 566 565 563 561 560 557 554 551 550 547 544 543 545 546 545 542 538 533 529 526 526 527 526 524 521 520 519 520 520 519 518 517 517 516 516 516 515 514 513 513 513 512 512 512 512 513 513 513 514 514 514 515 515 515 515 516 516 518 519 521 524 527 530 533 536 540 543 546
607 603 600 599 597 594 590 587 585 584 583 581 579 576 574 572 569 567 565 564 562 560 558 556 553 550 549 546 543 541 542 544 543 540 536 531 525 521 522 523 523 521 518 517 516 517 518 517 516 515 514 514 513 513 512 511 511 511 511 510 510 510 510 510 510 511 511 511 511 511 511 511 512 513 514 516 518 520 523 526 530 534 537 540 544 547
604 600 597 596 594 591 589 586 584 582 581 580 578 576 574 572 570 568 566 564 562 560 557 554 551 549 546 544 541 539 539 540 539 537 534 528 521 517 519 520 519 517 516 515 515 515 515 514 513 512 511 511 511 510 509 509 509 508 508 508 508 507 507 507 507 508 508 508 508 508 508 508 509 511 512 514 516 519 522 526 529 533 536 540 543 547
601 598 596 593 591 590 587 586 583 582 581 579 578 576 574 572 570 568 566 563 561 558 555 551 548 545 542 540 537 536 535 535 535 533 530 524 519 516 517 518 518 516 514 514 514 514 512 511 510 509 509 508 508 507 506 506 506 506 506 505 505 505 505 505 505 505 505 505 504 504 505 506 507 509 511 513 516 518 521 525 528 532 536 539 543 546
598 596 594 591 590 588 587 585 583 581 580 578 576 574 571 570 567 565 563 561 558 555 552 549 545 541 537 536 534 532 531 531 531 530 527 523 519 516 516 517 517 516 513 512 512 511 510 509 507 507 506 506 505 505 504 504 503 503 502 502 502 502 501 501 501 501 501 501 501 502 503 504 506 507 510 512 515 518 522 525 528 532 535 539 542 546
596 594 592 590 589 587 586 584 582 581 579 577 575 573 570 568 565 562 560 557 555 552 549 545 541 538 536 535 533 531 531 531 530 529 528 525 521 517 514 515 516 515 511 510 509 509 508 506 506 505 504 503 503 502 502 501 501 500 500 499 498 498 498 498 498 498 498 499 500 501 502 503 505 507 510 513 516 519 523 526 529 533 536 539 543 547
594 592 591 589 587 586 584 582 580 579 577 575 574 572 570 567 564 561 557 555 552 550 547 543 541 538 537 536 534 532 531 531 530 530 529 527 522 516 512 513 513 513 511 508 507 507 506 505 504 503 502 501 501 500 500 499 498 497 496 495 495 494 494 494 495 495 496 497 498 500 501 503 505 508 511 514 517 521 524 527 531 534 537 541 545 549
592 591 589 587 585 583 582 580 578 576 575 573 571 570 568 566 563 559 556 554 552 549 546 544 542 540 537 536 533 531 530 529 529 528 528 526 521 516 511 511 511 511 510 508 506 505 505 504 502 501 501 500 500 499 498 497 496 494 493 492 492 492 492 492 493 494 495 496 498 500 501 504 506 509 512 515 518 522 525 529 532 535 539 543 546 550
589 588 586 585 583 581 579 577 576 574 572 570 569 568 566 565 562 559 556 554 552 549 546 544 542 541 538 535 532 530 528 527 527 526 526 524 519 514 511 511 511 511 510 508 506 504 503 502 501 501 500 499 499 498 496 495 494 492 491 491 490 490 491 491 492 493 495 496 498 500 502 505 507 510 513 516 520 523 526 530 533 537 540 544 547 550
586 584 583 581 580 578 576 575 573 571 570 568 566 565 564 563 561 558 555 553 551 548 545 543 542 541 539 537 533 529 525 524 525 525 524 522 517 513 512 511 511 510 510 510 507 504 501 500 500 500 499 499 498 497 496 494 493 492 491 491 491 491 491 491 493 494 496 497 500 502 504 506 509 511 515 518 521 524 527 531 534 537 541 544 547 550
583 582 580 578 576 575 574 572 571 569 567 565 564 563 561 560 559 556 554 551 550 548 546 545 543 542 541 538 535 529 523 521 523 524 524 522 518 514 513 512 510 509 510 510 509 506 502 500 499 499 499 499 498 496 495 494 493 492 492 491 492 493 493 494 495 497 498 500 502 504 506 509 511 514 517 520 522 525 528 531 534 537 540 543 546 550
582 580 578 576 574 573 571 570 568 566 564 563 561 560 559 558 556 555 553 551 549 548 547 546 543 541 540 538 535 530 524 521 522 524 524 523 518 515 513 512 510 508 508 508 508 507 504 501 500 499 499 499 498 497 496 495 494 493 493 493 494 495 496 497 498 500 502 504 506 507 509 511 514 516 519 521 524 527 530 532 535 537 540 543 546 550
581 579 576 574 572 571 570 568 566 564 562 561 559 558 556 556 554 553 551 550 549 548 546 545 542 540 537 535 532 529 525 522 522 523 524 522 518 514 512 511 510 508 507 507 507 506 505 503 501 500 500 500 499 498 497 496 495 495 495 495 496 497 499 500 501 503 505 507 509 511 513 515 516 519 521 523 526 528 531 533 536 537 540 542 546 549
580 577 574 572 570 569 567 566 565 563 561 559 558 556 555 554 552 551 550 548 547 546 545 543 541 539 536 533 530 526 523 522 522 523 523 521 518 514 511 511 509 508 507 506 506 506 505 503 502 501 501 501 500 499 498 497 497 497 496 497 498 499 501 502 503 505 507 509 511 513 515 517 519 521 524 526 528 530 532 535 536 538 541 543 545 548
578 575 572 570 568 567 565 564 562 561 559 558 556 555 553 551 550 548 547 546 544 543 542 541 539 537 535 532 529 525 521 520 521 521 521 521 518 515 512 510 509 508 506 505 505 505 504 503 502 502 501 501 501 501 500 499 499 498 498 499 499 500 502 503 505 506 508 510 512 514 516 519 521 523 526 528 530 532 534 536 538 540 542 544 546 548
576 573 571 569 567 565 563 562 560 559 557 556 554 552 551 549 548 546 545 543 542 541 539 538 536 535 533 531 528 524 521 519 519 520 520 519 518 516 513 509 507 507 506 504 503 503 503 502 502 501 501 501 502 502 501 501 501 500 500 501 501 502 503 504 506 507 509 511 513 515 517 519 522 524 526 529 531 533 535 537 539 541 543 546 548 550
575 571 569 568 566 564 562 560 558 557 555 553 551 550 549 547 545 544 542 541 539 538 536 535 533 532 530 528 526 523 521 519 518 517 517 516 516 515 512 508 506 505 504 502 501 500 500 501 501 501 501 501 502 503 503 503 502 502 502 503 504 504 505 506 507 509 510 512 514 516 518 520 522 525 527 530 533 535 537 539 541 543 545 547 550 552
573 570 568 566 565 563 561 559 557 555 554 552 550 548 546 545 543 541 540 538 536 535 533 531 530 528 526 525 523 521 520 518 516 515 514 514 513 511 509 506 503 502 501 500 499 498 499 499 500 501 501 502 502 503 503 504 504 504 505 505 506 507 508 509 510 511 512 514 516 517 520 521 524 526 528 531 533 536 538 540 542 544 546 549 551 553
572 569 567 565 564 562 560 558 556 554 552 550 548 546 544 542 540 539 537 536 534 532 530 529 527 525 523 521 521 519 518 517 515 514 512 511 510 508 506 503 501 499 498 497 497 496 497 497 498 499 500 501 503 504 504 504 505 506 506 507 508 509 510 511 512 513 514 515 517 519 521 523 525 526 529 531 533 535 537 539 542 544 546 549 552 554
571 568 566 564 563 561 559 556 554 552 550 548 546 544 542 540 538 536 535 533 531 530 528 526 524 522 521 520 519 518 517 515 514 512 510 509 507 505 503 501 498 496 496 495 495 495 495 496 496 497 498 500 502 504 505 506 506 506 506 507 509 511 511 512 513 514 515 516 518 520 522 524 526 527 529 531 532 534 536 538 541 543 546 548 551 553
570 567 565 563 561 559 557 555 553 551 549 546 544 542 540 538 536 534 532 531 529 527 526 524 522 520 519 518 517 516 515 514 512 511 509 507 505 503 501 499 497 496 495 494 494 494 495 495 496 496 498 499 501 503 504 506 506 506 506 508 510 511 512 513 514 515 516 518 519 521 522 524 526 528 530 531 533 535 536 538 541 543 545 547 549 551
569 566 564 562 560 557 555 553 551 549 547 545 543 541 539 537 535 533 531 529 527 525 524 522 520 519 517 516 516 515 514 513 511 509 508 506 504 501 499 498 496 495 494 493 493 494 494 495 495 496 497 499 501 503 505 506 507 507 508 509 510 512 513 515 516 516 518 519 521 522 524 525 527 528 530 532 534 536 538 540 541 544 546 548 550 551
568 566 563 561 558 556 553 551 549 547 546 544 541 539 537 536 534 532 530 528 526 524 522 521 519 518 516 515 514 513 513 512 510 509 507 505 503 501 499 497 496 495 494 493 493 494 494 495 496 496 497 498 500 501 504 506 507 509 509 510 510 512 515 517 517 518 519 520 522 523 525 526 527 529 531 532 535 537 539 541 543 544 546 548 550 551
567 565 562 559 557 554 552 550 548 546 544 542 540 538 536 534 532 531 529 527 525 523 521 520 518 516 515 514 513 512 512 511 510 508 506 505 503 501 499 497 496 495 495 494 494 494 495 496 496 497 498 499 500 501 503 506 508 509 511 511 511 512 514 517 518 519 520 521 523 524 526 527 528 530 531 533 535 537 539 541 543 545 546 548 550 551
567 564 561 558 556 553 551 548 546 545 543 541 539 536 534 533 531 530 528 526 523 521 520 519 517 516 514 513 512 511 511 510 509 508 506 505 503 501 500 498 497 496 495 495 495 495 496 496 497 498 499 500 501 503 504 506 508 510 511 512 513 514 515 517 518 520 521 522 524 525 527 528 529 531 533 535 536 538 540 541 543 545 547 549 550 552
566 563 560 556 554 551 549 547 545 543 541 539 537 535 533 531 530 528 526 525 522 521 519 518 516 515 514 512 512 511 511 510 509 508 507 505 504 502 501 500 499 497 497 496 496 496 497 498 498 499 500 501 503 505 506 507 508 510 512 513 514 516 517 519 520 521 522 523 525 526 528 529 530 532 534 536 537 539 541 542 544 546 547 549 551 552
565 562 558 556 552 550 548 546 544 542 540 538 536 534 532 530 528 526 525 523 521 520 518 517 516 515 514 513 512 511 511 510 510 509 507 506 505 504 502 501 501 500 499 499 498 499 499 500 500 500 501 502 505 507 508 509 510 511 513 514 516 517 519 521 521 522 523 524 526 527 529 530 531 533 535 536 538 540 541 543 545 546 548 550 551 553
564 561 557 554 551 549 546 545 543 541 539 536 534 532 531 529 527 526 524 522 521 519 518 516 515 515 514 513 512 511 511 511 510 510 509 507 506 506 505 504 503 502 501 501 501 501 501 501 502 502 502 503 505 507 510 511 511 512 513 515 516 518 520 522 523 524 525 526 527 528 530 531 532 534 535 537 539 541 542 544 545 546 548 550 551 553
563 560 557 553 551 548 546 544 542 540 538 536 533 531 529 528 526 525 523 522 520 519 517 516 515 514 514 513 512 512 511 511 511 510 510 509 508 507 506 506 505 504 503 503 502 502 503 503 504 505 505 505 506 508 510 512 513 514 515 516 517 519 521 523 524 525 526 527 528 529 531 531 533 534 536 538 540 542 543 544 546 547 548 550 551 553
562 559 556 553 550 547 545 543 541 539 537 535 533 531 528 527 525 524 523 521 520 518 517 516 515 515 514 513 513 513 512 512 511 511 511 510 509 508 508 507 506 506 505 504 504 504 504 505 506 507 508 509 509 510 511 513 514 515 516 517 519 520 521 523 525 526 527 528 529 530 531 532 534 535 536 538 540 542 544 545 546 547 548 550 551 553
561 558 555 552 549 547 545 542 541 538 536 534 532 530 528 526 524 523 521 520 519 518 517 516 515 515 514 514 514 513 513 513 512 512 511 511 511 510 509 508 508 507 506 506 506 506 506 507 508 509 511 512 512 513 513 514 515 516 518 519 520 521 522 524 525 526 528 529 530 531 532 533 534 536 537 538 541 543 544 546 546 547 548 550 551 552
Wind_Speed
28 29 29 30 30 30 32 32 31 31 31 31 31 31 31 30 30 29 30 30 31 31 31 32 33 33 34 35 36 38 39 39 39 39 40 42 43 44 44 45 45 45 45 44 43 43 43 43 43 44 45 46 47 48 48 48 48 47 46 45 44 43 42 42 42 42 42 42 42 43 44 45 45 45 44 43 43 44 45 46 46 46 46 46 45 45
27 28 28 29 29 29 30 30 30 30 30 30 30 30 30 30 31 31 31 30 30 30 30 31 32 33 35 35 35 37 38 38 38 39 41 42 43 44 45 46 46 45 45 44 44 43 43 42 42 43 43 44 45 46 47 48 49 49 48 47 46 45 43 43 43 43 43 42 42 43 44 45 46 45 44 44 44 44 46 46 47 47 47 46 46 45
26 26 26 26 26 27 27 28 28 28 29 29 29 29 30 31 31 31 31 30 30 30 31 32 32 33 33 34 34 35 37 38 39 40 42 43 44 44 45 45 45 45 45 45 44 44 43 42 42 42 42 43 43 44 45 47 48 49 50 49 48 46 45 44 44 44 44 44 44 44 45 45 46 46 45 44 44 45 46 47 47 48 48 47 46 45
25 25 26 26 25 26 26 27 28 28 28 29 30 31 31 31 30 31 30 30 31 31 32 32 32 32 32 32 33 34 36 38 39 41 42 42 43 44 44 44 44 44 44 44 44 44 43 42 42 42 42 42 42 43 44 45 46 48 49 49 49 48 46 45 45 46 46 45 45 45 46 46 47 48 48 46 45 45 45 46 48 49 49 47 46 45
26 26 27 27 27 28 29 30 30 30 31 31 32 32 32 30 29 29 29 29 29 30 31 31 32 31 31 30 30 32 35 37 39 39 39 40 40 41 41 42 42 43 44 44 44 44 43 43 42 42 42 42 42 42 43 43 44 46 47 48 48 48 47 46 46 46 46 46 46 46 47 47 47 48 49 49 48 46 46 47 48 49 50 48 47 46
26 26 26 26 26 28 30 30 30 30 31 31 31 31 30 30 29 29 29 29 29 29 30 31 31 32 31 30 31 32 35 36 37 36 36 36 37 37 38 39 41 42 43 43 44 44 44 44 43 43 42 42 41 41 42 42 43 44 46 47 48 48 47 47 46 46 46 46 46 47 47 47 47 48 49 50 50 49 48 48 49 50 50 48 48 48
25 26 26 26 27 28 29 29 29 29 29 29 29 30 30 30 30 30 31 31 31 31 31 31 31 32 31 31 32 33 35 35 35 34 33 33 33 34 35 37 38 40 42 43 44 44 45 44 44 44 43 42 41 41 41 41 42 43 45 46 47 48 48 47 47 47 47 46 47 47 47 47 47 48 49 50 51 50 50 50 51 51 50 49 49 49
24 25 26 26 26 27 28 28 28 27 27 27 27 28 30 30 30 31 32 32 31 31 30 30 30 30 29 28 28 29 31 32 32 32 31 31 31 33 34 36 38 39 41 42 43 44 44 44 44 44 43 42 41 40 40 41 41 43 44 46 47 48 48 48 48 47 47 47 47 47 47 47 48 48 49 50 51 51 51 51 53 52 50 49 49 49
22 23 25 25 25 25 25 27 27 27 27 26 26 26 27 28 29 30 30 29 27 26 25 25 26 26 27 26 25 26 28 30 31 31 30 31 32 33 35 37 39 40 40 41 42 43 43 44 44 44 43 41 40 39 39 39 40 41 43 44 45 47 47 48 48 47 47 47 48 48 48 48 49 49 50 50 51 51 51 52 54 54 50 49 49 49
22 22 24 25 26 24 23 24 26 27 26 25 25 25 25 25 25 24 24 23 23 23 23 23 23 25 28 29 30 29 30 31 32 33 33 34 35 36 37 38 39 39 39 40 41 42 43 43 43 43 42 41 40 39 38 38 38 39 41 42 44 45 46 47 47 47 47 47 48 48 49 49 50 50 51 51 52 52 50 53 55 54 50 48 48 49
20 22 22 23 24 24 24 24 25 26 26 26 26 26 25 24 21 18 15 18 24 27 28 28 28 29 30 31 32 32 31 31 32 33 34 35 36 36 37 38 38 39 39 39 40 41 42 43 43 42 42 41 40 39 38 38 38 39 40 41 42 44 45 46 46 46 46 47 48 49 50 50 51 51 52 52 53 53 51 51 52 52 49 48 48 49
18 20 21 22 22 23 23 25 26 26 26 24 22 21 23 24 23 20 17 17 22 27 29 30 30 29 29 29 29 30 29 28 29 30 30 31 32 33 34 35 36 36 37 37 38 39 40 40 40 40 40 39 39 39 38 38 39 39 40 41 42 43 44 45 45 45 46 46 47 49 50 51 51 52 53 53 54 54 53 51 50 49 48 47 48 49
20 21 21 22 22 21 22 23 24 23 22 20 15 13 16 22 24 24 22 21 23 26 27 27 28 28 27 26 26 26 25 25 26 26 27 28 29 30 31 31 32 33 34 35 36 37 37 37 36 36 36 36 37 37 38 38 39 40 40 41 42 43 43 44 45 45 46 46 47 49 50 51 51 52 52 53 55 55 54 52 51 49 47 47 48 50
19 21 19 17 17 19 20 20 18 16 17 19 19 19 21 23 24 23 22 22 24 26 25 23 24 27 29 29 28 27 27 28 29 29 28 28 29 30 30 30 31 32 34 34 34 35 35 34 33 33 34 34 35 35 36 37 37 38 39 40 41 42 43 43 44 45 45 46 47 48 49 50 51 52 52 53 54 54 52 50 50 49 48 49 50 51
16 16 13 11 11 14 18 19 18 17 19 22 23 24 24 24 23 22 19 18 21 23 23 23 25 28 30 30 29 28 28 28 28 28 27 26 27 28 28 28 29 31 32 31 32 33 33 33 32 32 34 34 35 35 35 35 36 37 37 38 39 40 41 42 42 43 43 44 45 46 47 48 49 51 51 52 53 52 50 47 47 48 50 52 53 52
17 14 10 10 10 13 19 20 20 20 22 24 24 23 22 21 21 21 18 17 19 20 18 13 14 19 24 28 27 25 25 25 24 22 21 21 22 23 22 23 24 25 26 26 27 29 32 32 32 33 33 34 35 35 35 35 35 35 36 37 37 38 39 40 41 41 41 41 42 42 44 45 47 49 50 51 51 49 47 45 45 47 50 52 52 51
18 14 10 10 10 13 21 23 23 23 23 23 23 22 21 20 20 21 21 20 18 16 12 8 8 9 11 18 22 22 19 19 19 19 20 20 21 22 21 22 22 22 23 23 25 28 31 32 32 32 33 33 34 34 34 34 34 35 35 35 36 37 38 39 39 39 39 39 40 40 42 44 46 48 48 48 47 47 45 44 45 47 50 50 48 47
18 16 13 10 11 15 21 23 23 23 23 22 23 23 23 22 21 21 21 21 17 11 7 7 7 7 7 8 15 21 19 21 23 24 25 26 29 30 28 25 23 23 24 24 27 29 31 32 33 34 34 33 33 34 34 35 35 35 35 35 36 36 37 38 39 39 39 39 39 39 41 43 45 47 46 45 45 45 45 46 48 49 50 48 46 45
19 20 17 14 16 20 23 23 22 21 21 22 23 23 23 23 23 22 22 21 19 14 11 9 8 7 7 6 16 26 27 27 26 25 24 25 30 33 31 28 25 25 26 27 29 31 32 33 34 35 35 35 35 35 36 36 36 36 36 36 36 36 37 38 38 39 39 38 38 38 39 42 44 46 45 44 44 45 46 48 50 51 50 49 47 46
21 23 23 23 22 22 23 24 24 24 23 23 23 23 22 23 23 22 21 20 20 18 17 11 9 10 12 18 27 33 31 27 23 21 20 22 27 31 30 27 24 24 25 26 28 30 30 32 33 34 34 35 35 35 36 37 37 37 37 36 36 36 37 37 38 38 38 38 38 38 39 41 43 44 44 44 45 47 48 49 50 49 49 48 48 47
23 25 28 28 25 22 21 24 27 28 27 27 26 24 22 20 19 18 19 19 19 19 18 11 11 16 22 25 29 32 32 27 23 20 19 19 23 28 29 26 23 22 23 24 26 28 28 30 32 33 34 34 34 35 36 36 36 36 36 36 36 36 36 36 36 36 36 36 36 37 38 41 43 43 43 43 45 46 47 46 45 44 44 44 44 43
25 27 30 31 28 25 25 27 29 30 29 27 25 23 21 19 18 18 19 20 20 20 19 17 21 28 30 31 33 35 33 29 25 21 18 13 15 22 29 25 22 21 20 21 23 25 27 29 31 32 33 34 34 34 35 35 35 35 35 35 35 35 35 35 35 35 35 35 35 36 38 40 42 42 41 42 43 43 43 42 41 40 40 40 39 39
29 29 29 29 27 27 27 27 26 26 26 25 24 23 22 22 22 22 23 23 24 26 28 31 34 35 34 33 34 34 33 30 28 24 15 11 12 17 25 21 18 16 16 18 20 23 26 28 30 31 32 33 33 33 33 33 33 33 33 33 33 34 35 35 35 35 35 35 34 35 37 40 40 39 39 40 41 41 40 40 40 39 39 38 38 38
30 29 28 26 25 26 26 25 25 26 26 25 25 25 26 28 29 30 31 31 30 30 31 32 31 30 31 30 30 30 30 29 28 24 14 8 10 16 18 15 13 13 17 21 24 24 25 27 29 30 31 31 32 33 33 32 32 32 32 32 33 34 35 35 36 36 34 33 33 34 36 36 35 35 37 39 40 40 40 40 40 40 39 39 39 38
29 28 27 27 27 28 28 28 29 29 29 29 29 30 31 31 31 31 30 30 29 28 28 25 21 18 20 22 22 22 22 22 21 17 11 5 4 10 18 18 16 16 20 26 26 24 24 25 27 29 30 30 30 31 31 31 32 32 32 32 33 34 35 35 34 33 31 30 30 31 30 30 32 35 38 39 40 40 41 40 40 39 39 39 39 38
31 30 30 31 31 31 31 32 33 33 33 32 30 30 29 29 28 28 27 26 24 23 20 15 10 8 9 9 10 13 16 16 16 16 15 9 7 13 25 27 23 20 22 25 24 21 20 22 24 25 26 27 27 27 28 29 30 30 31 32 32 32 32 31 30 28 27 26 26 26 27 30 34 37 38 39 39 39 39 39 38 38 38 38 37 35
30 31 31 32 32 31 31 31 32 32 32 32 31 29 29 28 25 22 19 20 20 17 11 8 7 7 7 6 8 13 21 23 24 24 23 17 10 10 20 24 20 17 18 20 20 18 16 18 20 22 22 23 23 23 23 24 25 26 28 28 28 28 28 27 25 24 23 23 23 26 31 35 37 38 39 39 39 38 38 37 37 36 36 35 33 32
29 30 30 30 30 30 30 30 30 30 31 31 31 30 29 26 21 16 14 18 19 15 9 8 8 8 8 8 11 17 24 24 24 24 23 19 11 9 15 15 12 10 12 14 15 16 14 15 17 19 18 18 17 17 18 19 20 22 23 24 24 24 24 23 22 21 22 25 28 32 35 37 38 38 38 38 38 37 36 36 35 35 34 32 31 30
29 30 30 29 29 28 28 28 29 29 30 30 29 28 26 24 20 18 20 22 21 15 10 9 8 8 9 9 13 19 22 22 22 22 20 15 9 7 10 9 9 9 10 9 9 10 10 11 12 13 13 13 12 12 12 12 13 15 16 17 18 19 20 20 21 23 27 30 34 36 36 37 37 38 38 38 37 36 36 35 35 34 32 31 30 29
30 30 30 29 28 27 27 27 28 29 29 29 28 27 25 24 23 23 25 24 20 13 7 7 8 8 9 9 10 12 14 17 17 16 14 9 5 4 7 8 10 10 8 4 3 3 4 5 6 8 9 8 8 6 5 4 5 7 8 10 12 15 18 21 24 28 31 33 35 36 36 36 36 37 37 36 36 36 36 35 34 33 31 30 28 28
31 31 30 29 27 26 26 26 27 28 28 28 27 26 25 24 24 24 24 21 16 13 10 10 10 10 9 8 8 7 6 13 14 13 13 10 9 11 14 11 12 13 9 4 2 3 3 3 2 3 5 5 4 2 1 3 6 9 12 14 16 17 19 23 26 29 31 32 33 34 34 34 35 35 35 35 35 35 35 34 32 31 30 28 27 27
31 30 29 28 27 26 25 25 26 27 27 26 25 25 24 23 23 24 23 21 18 17 17 16 15 14 11 9 8 7 7 15 18 17 16 14 14 17 18 14 12 12 11 9 6 2 3 2 3 3 2 3 3 3 3 5 8 11 15 18 19 19 21 23 25 27 28 29 30 31 31 32 32 33 33 34 34 34 34 32 30 29 29 28 27 27
30 29 28 27 27 26 25 25 25 26 25 24 24 24 23 23 23 24 23 23 22 20 19 18 17 15 13 12 10 10 14 19 21 20 19 16 15 15 16 14 12 12 11 9 7 4 3 2 2 3 2 3 4 4 4 5 7 10 14 18 20 20 20 22 23 25 26 26 27 28 28 29 30 31 32 32 33 32 31 29 28 28 29 29 28 27
30 29 28 27 26 26 26 26 26 25 25 24 24 24 23 24 24 24 23 23 24 22 20 19 17 16 14 10 9 11 18 21 21 19 18 17 15 14 16 14 13 12 9 5 4 3 2 2 1 1 1 2 3 4 5 6 7 10 14 17 19 19 20 21 22 23 24 25 26 26 27 28 28 29 30 30 31 30 29 27 26 27 29 29 28 27
28 28 26 24 23 24 25 26 26 25 25 24 24 24 24 25 25 25 24 24 24 24 23 22 21 20 18 12 9 11 17 21 21 19 19 19 18 17 16 16 16 13 6 3 2 1 1 2 2 1 0 1 3 4 5 6 8 10 13 16 17 18 20 21 22 23 24 25 26 26 27 27 27 27 28 28 28 28 27 26 26 27 28 28 28 28
26 24 23 22 22 22 23 24 25 25 25 25 24 25 25 25 25 24 24 25 25 25 25 25 24 24 23 21 18 17 19 22 23 23 23 22 21 19 17 17 18 17 9 4 3 3 2 2 2 2 2 1 1 3 3 5 8 11 13 15 16 17 19 21 23 24 25 25 25 26 27 27 27 27 27 26 27 26 26 25 25 27 28 27 27 27
23 22 22 22 22 22 22 23 24 25 25 24 24 24 24 25 25 24 23 26 27 27 27 27 26 26 25 26 25 24 24 26 27 27 26 25 24 21 19 19 21 20 15 9 5 3 3 2 2 2 2 1 1 1 1 5 8 11 13 14 15 16 18 20 23 25 25 26 26 26 27 27 27 27 26 26 26 25 25 25 25 26 27 26 26 25
21 21 23 23 23 22 22 23 24 25 25 25 25 25 26 26 27 28 27 28 28 28 28 27 27 27 27 26 26 26 27 27 27 27 26 24 23 21 20 21 22 23 21 17 13 8 4 3 3 3 2 1 2 2 4 6 7 9 12 14 15 16 17 19 22 24 25 26 26 26 27 27 27 27 26 26 26 26 25 25 25 25 25 25 24 23
20 20 22 24 24 23 22 23 25 26 26 26 26 27 27 28 29 28 27 27 27 27 27 27 27 27 27 27 26 24 22 21 20 20 19 19 19 20 20 20 21 21 20 19 16 12 7 4 4 4 3 2 2 3 5 7 8 9 12 14 15 16 17 19 21 23 25 25 25 25 26 26 27 27 26 26 27 26 26 26 26 25 25 24 23 22
20 20 22 24 25 24 23 24 25 26 27 27 28 28 27 27 26 25 25 25 25 25 25 25 25 25 25 24 22 19 16 15 15 14 14 15 15 16 17 18 18 17 15 13 13 12 9 5 3 3 4 3 3 3 3 6 8 11 13 10 8 9 14 17 20 22 24 25 25 25 25 26 26 25 25 26 26 26 27 27 26 26 26 26 24 22
21 21 23 25 26 26 25 26 27 27 27 27 26 25 24 23 22 22 23 22 22 22 23 23 22 22 21 19 17 14 12 12 11 11 12 12 11 10 11 12 12 11 10 9 9 9 9 7 5 4 4 4 5 5 5 6 8 10 11 7 6 9 13 16 18 20 22 24 24 25 25 24 23 23 23 24 25 27 28 28 28 27 28 27 26 24
21 22 24 26 27 27 26 26 26 26 26 24 23 22 22 22 21 20 20 20 20 20 21 20 18 17 16 15 14 11 10 10 10 10 10 10 9 6 5 4 5 7 9 9 9 8 8 8 7 7 7 7 6 4 4 6 8 9 9 10 12 13 14 15 17 20 21 22 23 23 23 22 21 21 22 23 25 26 27 27 27 28 28 27 27 26
23 24 25 27 27 26 26 25 25 25 25 24 23 22 22 22 21 21 20 19 19 19 19 18 16 14 12 11 10 10 9 9 9 9 10 10 8 6 3 1 2 5 7 9 8 7 8 8 8 9 11 12 10 6 5 6 7 8 10 12 14 11 6 8 14 19 20 21 21 21 21 21 21 21 22 23 25 26 26 26 26 27 27 28 27 26
25 25 26 27 26 26 25 25 25 25 25 24 23 23 22 23 22 21 19 18 18 18 17 17 16 13 10 8 7 8 9 9 9 10 10 10 9 8 6 5 4 4 5 7 7 7 7 7 8 8 10 12 12 9 7 6 7 8 9 11 12 10 6 8 14 18 19 20 21 21 21 22 22 22 23 23 24 24 25 25 25 25 26 27 27 27
26 26 27 27 27 26 25 24 24 24 23 23 23 22 22 23 22 20 19 19 18 17 16 15 12 8 4 3 4 6 7 9 10 11 12 12 12 11 10 9 9 8 8 9 9 8 7 6 7 9 12 12 11 10 8 7 8 9 9 9 11 12 12 15 17 19 19 19 20 20 21 22 23 23 23 22 22 22 23 23 24 24 24 24 25 26
25 26 26 27 26 25 24 24 23 23 23 23 22 22 22 22 22 21 20 19 17 15 15 14 10 5 2 2 3 4 5 7 8 11 13 14 15 15 15 14 14 13 13 13 13 12 11 9 9 10 12 12 10 9 9 10 9 9 10 11 13 14 14 15 16 17 19 20 20 20 21 21 21 21 19 19 19 20 21 22 22 23 23 22 23 23
25 25 26 26 25 23 23 23 23 22 22 22 22 22 22 21 21 20 19 17 16 14 13 11 8 4 2 2 2 2 3 4 6 8 10 13 14 16 17 18 18 19 19 18 18 17 15 13 12 11 11 9 6 5 7 10 11 10 10 12 13 13 12 12 14 16 18 19 20 20 20 19 18 18 17 17 17 16 17 18 19 20 21 21 22 22
25 26 26 25 24 22 22 22 22 21 21 21 21 22 22 21 20 18 17 16 15 14 12 9 5 3 2 2 3 3 3 3 4 7 8 10 12 13 14 16 18 20 21 22 21 20 18 16 14 13 12 9 5 4 6 9 11 11 12 13 14 13 11 12 14 16 17 18 19 20 20 18 17 17 17 16 14 13 13 14 16 17 18 19 20 20
26 26 25 25 23 21 20 21 21 21 20 20 20 20 21 20 20 19 17 16 15 12 9 6 4 2 2 2 3 4 5 5 5 6 8 9 10 10 11 11 13 14 17 19 21 21 21 20 18 15 12 12 10 9 9 10 11 13 13 14 14 13 12 12 14 16 17 18 19 19 19 18 19 19 18 15 12 11 12 13 14 15 16 17 17 18
27 26 25 24 22 20 20 20 21 20 20 19 19 19 20 20 20 19 18 16 13 11 8 6 4 2 1 2 3 4 4 5 5 6 7 8 9 9 9 9 8 8 9 11 12 14 15 16 17 18 16 13 12 12 11 12 13 14 13 13 14 14 13 13 14 16 17 18 18 19 19 18 18 19 18 14 12 11 12 12 13 14 15 16 17 17
26 25 25 23 21 21 21 20 20 19 19 19 19 19 19 19 19 18 17 14 11 9 8 7 5 3 1 2 3 4 4 4 4 5 6 8 9 9 9 9 8 6 4 3 3 4 4 4 7 11 14 14 11 10 13 13 13 12 11 11 13 15 14 14 15 16 16 17 17 17 17 17 17 17 16 15 11 9 8 9 12 14 15 16 17 17
Wind_Direction
296 298 298 299 299 298 297 297 296 296 295 296 295 295 295 295 293 291 290 288 286 283 280 277 276 276 276 277 276 276 274 274 273 274 275 277 277 277 276 275 275 274 274 273 271 270 269 268 268 268 268 268 266 264 262 260 258 256 256 255 255 254 253 252 250 249 247 245 243 241 239 237 235 233 231 230 229 228 226 225 224 223 222 222 221 220
299 299 299 300 299 298 297 298 299 298 298 298 297 297 297 296 295 294 293 291 289 286 282 280 278 277 278 277 277 276 276 276 276 275 275 275 275 275 275 275 275 274 274 274 273 272 270 269 268 268 268 268 267 265 263 261 259 258 256 254 253 253 252 251 250 248 247 246 244 241 239 237 235 233 231 229 229 228 226 225 223 222 222 221 221 220
303 303 303 304 303 302 302 303 304 303 302 302 301 300 299 298 296 295 294 293 291 288 285 283 280 277 276 274 274 275 277 277 276 275 274 273 273 273 274 274 275 275 275 275 275 274 272 271 270 269 269 268 267 266 264 262 260 258 256 253 252 252 251 251 250 248 247 245 244 242 240 237 234 232 230 228 228 227 226 224 223 221 221 220 220 219
304 304 305 306 306 305 304 304 305 305 304 303 301 300 299 298 296 294 293 293 292 290 287 284 281 277 275 273 273 274 276 277 276 275 274 273 272 272 273 274 274 275 275 276 276 275 274 273 272 271 271 270 269 267 264 262 260 257 255 253 252 251 251 251 250 249 247 245 244 243 241 238 235 232 231 229 227 226 225 224 223 221 219 219 219 217
301 301 303 304 304 303 302 302 302 302 301 300 299 299 298 297 296 296 295 295 294 292 290 288 285 283 282 279 276 276 279 279 278 277 276 274 273 273 273 273 274 275 275 275 275 275 275 274 274 274 273 272 270 268 266 263 260 257 255 253 252 251 251 250 250 249 247 245 244 243 242 240 236 233 231 229 228 226 224 223 222 221 219 218 219 216
299 299 300 301 300 300 301 302 302 302 302 300 300 299 298 298 298 299 298 298 296 293 291 290 289 288 287 284 282 281 281 280 280 280 279 277 276 275 274 274 274 274 274 275 275 275 275 275 275 275 274 273 272 270 267 264 261 259 257 255 254 253 252 251 249 248 247 245 244 243 243 241 238 234 231 229 228 226 224 222 221 220 219 219 220 218
297 297 298 298 298 298 299 300 301 301 302 302 301 300 300 299 299 298 297 296 294 292 290 288 287 286 284 282 281 280 280 279 282 284 283 282 280 279 278 277 276 275 274 273 273 274 274 275 276 276 275 274 273 271 269 266 263 260 258 257 256 255 253 251 250 248 246 245 244 243 243 243 241 237 233 229 227 225 223 222 221 220 220 222 223 220
295 296 296 297 298 298 298 297 298 299 299 300 300 300 300 299 297 296 294 293 291 290 290 290 289 287 284 282 280 279 281 284 287 287 286 285 285 284 283 282 279 277 274 273 272 273 274 275 276 276 276 275 273 272 270 267 264 262 260 258 257 256 254 252 250 248 247 245 244 243 242 243 242 240 236 232 228 224 222 221 221 220 221 224 225 222
292 294 295 296 296 297 297 296 296 296 297 297 296 296 297 297 296 295 294 292 291 291 293 295 296 295 293 291 289 288 289 290 290 288 286 286 285 285 284 283 280 277 274 272 271 272 273 274 275 275 275 274 273 272 270 268 266 263 261 259 258 256 254 252 250 248 247 246 245 243 241 241 242 241 239 235 230 225 221 220 220 221 221 224 225 221
290 292 294 295 295 294 294 294 295 296 296 295 294 292 293 294 295 297 297 296 297 298 299 300 300 299 297 296 294 293 292 290 287 285 283 282 281 281 280 279 277 275 273 271 271 271 272 273 273 274 274 273 273 272 270 268 266 264 262 260 258 257 255 252 250 248 247 247 245 243 241 240 240 241 240 238 234 229 224 219 219 221 222 225 223 218
291 292 294 295 294 293 291 292 294 296 297 297 295 293 292 292 295 300 302 302 302 302 301 299 297 295 295 294 293 291 290 286 284 281 279 277 277 276 275 274 272 271 271 271 271 271 272 272 272 272 273 273 272 271 270 268 266 265 263 261 260 258 255 252 249 247 246 246 245 243 241 239 239 239 239 238 236 233 230 226 223 223 225 225 221 212
294 294 294 295 294 294 293 293 294 296 297 297 297 296 294 294 295 297 298 299 300 300 299 298 296 293 291 291 292 292 290 286 283 281 278 277 275 274 271 269 267 267 268 270 271 271 271 271 271 271 272 272 271 271 270 269 267 266 264 263 261 259 256 253 250 248 247 246 245 243 241 239 238 238 238 237 236 235 233 233 232 231 229 224 215 205
294 294 294 293 293 293 293 294 295 296 296 295 295 294 294 294 294 293 292 291 292 294 295 295 295 294 293 294 294 295 294 291 288 285 282 278 276 273 268 265 263 264 266 268 269 269 270 270 270 271 271 271 271 271 270 270 269 268 266 264 262 260 257 255 252 251 249 248 246 244 241 239 237 236 236 235 235 235 234 235 236 234 229 219 207 198
294 294 293 291 291 290 291 292 293 293 292 292 290 289 290 291 291 290 288 287 288 290 291 292 294 297 297 297 297 296 295 293 290 287 282 276 271 268 265 262 262 263 264 264 264 266 268 269 270 270 271 271 271 272 272 272 271 270 268 266 263 260 258 256 255 253 251 249 247 244 241 239 237 235 234 234 234 234 235 235 235 230 222 210 200 193
294 293 289 286 285 288 290 290 290 289 288 288 288 287 287 287 287 287 286 285 288 290 293 295 296 297 296 295 294 292 290 286 284 282 279 275 271 268 265 261 260 259 260 259 260 263 267 268 269 270 272 272 272 273 273 274 273 273 271 268 265 262 259 257 256 254 252 249 247 244 242 240 237 235 233 233 233 234 234 233 230 223 213 202 195 192
293 291 285 284 284 285 287 288 287 286 285 285 285 284 283 283 284 285 285 285 289 292 295 296 296 295 294 294 293 291 286 284 284 286 287 286 285 282 277 273 270 266 261 259 259 262 267 269 270 270 271 272 273 274 274 274 274 274 272 269 266 263 260 258 256 253 251 249 247 246 244 242 240 237 235 233 233 232 231 227 221 213 203 195 192 191
292 289 284 283 283 284 285 285 283 282 281 281 281 280 279 278 279 282 284 286 288 291 291 289 288 288 291 294 294 293 294 301 306 308 307 304 302 301 297 290 284 278 271 266 265 266 269 270 270 270 270 271 272 274 274 274 274 273 271 269 266 263 261 258 255 252 250 248 248 248 248 246 244 240 237 234 232 229 224 218 210 201 194 191 190 190
291 289 287 283 283 284 284 283 281 280 279 280 280 280 278 276 275 277 279 282 283 283 281 278 276 278 284 287 291 296 305 316 317 312 307 301 297 296 296 293 287 280 275 271 270 270 271 271 270 270 270 270 272 273 274 274 273 272 269 267 264 262 259 257 254 251 248 248 248 249 250 250 247 243 239 234 228 222 216 208 200 193 190 188 187 187
290 288 286 284 283 282 281 280 279 278 277 278 280 281 280 278 276 275 274 276 276 274 274 272 270 272 277 281 290 293 298 301 300 296 292 289 288 288 287 285 279 274 272 270 270 270 270 270 270 271 271 272 273 274 274 274 272 270 268 265 263 261 258 255 253 250 249 248 250 251 253 252 249 245 239 231 222 214 207 199 193 190 187 186 184 183
288 286 283 281 280 279 278 277 278 278 277 277 278 278 278 278 277 275 273 273 273 273 274 273 273 277 283 286 288 290 292 292 288 284 282 282 283 284 283 279 272 267 266 265 266 267 269 270 271 272 272 273 273 274 274 274 272 270 267 265 263 260 257 255 252 251 251 251 253 255 257 256 252 246 237 226 215 207 199 193 189 187 185 183 181 180
284 281 278 276 275 275 276 277 277 278 278 278 279 279 278 279 278 278 279 281 283 283 283 281 280 284 287 287 287 288 289 288 285 282 281 280 280 281 280 275 269 263 261 261 263 266 268 270 272 273 273 274 275 274 274 273 271 268 265 263 260 258 256 254 253 253 253 254 257 259 260 258 254 245 233 219 208 199 193 188 185 183 180 178 176 175
278 276 275 274 273 274 276 277 278 280 282 283 284 285 286 288 290 293 295 297 296 295 293 290 288 287 287 285 284 284 284 282 278 275 277 275 275 276 276 272 265 260 257 259 263 267 270 272 272 273 274 274 274 274 272 271 269 266 263 260 257 255 254 254 253 254 255 258 260 261 261 259 252 241 224 209 198 191 185 181 178 175 173 171 169 168
275 275 276 277 279 280 282 284 287 290 295 297 297 298 298 299 301 301 301 299 296 293 290 288 286 285 282 280 279 279 279 276 272 268 268 266 268 273 275 271 265 260 260 264 270 274 275 273 271 271 272 272 271 271 270 269 267 264 261 259 256 255 254 254 255 257 259 262 263 263 262 257 246 229 210 196 187 180 176 172 170 168 166 164 163 164
277 278 282 285 289 292 295 299 303 306 308 308 306 304 302 300 298 295 293 291 289 287 285 284 282 280 278 276 275 275 275 273 268 263 257 257 268 274 278 279 278 274 274 278 280 279 275 272 270 269 269 269 269 269 268 267 265 263 261 258 257 256 256 257 259 261 263 264 265 263 258 248 230 209 191 181 175 171 168 165 164 162 161 160 161 162
285 288 292 296 300 303 305 308 310 310 309 306 304 301 299 297 295 293 290 287 284 282 280 279 276 275 276 276 277 278 279 277 272 268 269 275 287 289 290 292 289 284 282 283 281 276 271 269 269 270 269 269 269 268 267 266 265 263 262 260 259 259 259 260 261 262 263 262 260 253 242 222 200 184 175 170 166 164 163 161 159 158 158 158 159 160
295 299 302 304 306 307 307 307 306 305 304 303 301 300 299 298 296 293 289 286 282 279 276 273 270 275 286 292 293 294 298 302 304 305 305 303 297 292 291 290 285 279 278 279 277 272 270 271 272 272 272 270 270 270 269 268 267 266 265 263 262 261 260 259 259 258 256 252 243 228 207 187 174 167 163 161 160 158 157 156 155 154 154 155 156 157
305 307 307 306 306 305 305 304 304 304 303 302 300 300 299 298 296 293 289 287 286 284 280 284 292 300 307 307 302 299 300 301 301 302 301 296 289 283 286 286 281 272 271 273 273 273 272 272 273 274 274 273 274 274 274 273 272 270 267 264 261 258 255 253 249 245 237 225 208 189 175 166 160 157 155 154 154 153 152 151 151 150 151 151 153 156
309 308 306 305 303 302 302 303 304 304 303 302 301 300 299 297 295 292 293 296 297 298 299 304 305 305 303 297 295 296 296 295 294 293 292 286 277 270 278 282 278 269 270 276 279 278 273 268 268 269 270 272 273 274 274 273 271 268 264 259 255 249 244 237 229 218 203 188 175 165 159 155 153 151 151 150 150 149 149 148 148 148 148 150 152 155
311 309 307 304 302 302 303 304 304 305 304 303 302 301 299 295 292 290 292 294 295 295 294 294 296 299 300 299 298 297 294 292 292 292 290 281 270 267 279 287 287 283 283 289 291 284 272 262 259 259 260 263 264 264 264 264 261 257 253 246 238 229 219 208 196 184 174 165 159 154 151 150 149 149 149 149 149 149 148 147 147 148 150 151 152 155
313 311 309 306 304 304 304 305 306 305 304 303 302 300 297 292 288 286 286 287 287 288 291 299 303 304 303 302 299 293 288 288 293 299 302 295 283 286 300 301 295 290 286 291 310 301 276 265 255 249 250 257 264 265 253 237 219 211 204 196 189 184 179 172 166 161 157 153 151 149 148 148 148 149 149 150 149 149 149 148 149 149 150 151 152 154
314 312 309 307 306 306 306 306 307 306 304 303 301 298 295 290 287 284 283 286 294 305 312 311 306 301 297 295 291 286 283 287 294 308 318 309 294 290 295 297 293 287 275 239 233 292 291 297 294 266 250 268 289 314 92 119 133 140 143 141 140 142 145 147 147 147 147 147 147 148 148 148 149 149 150 150 150 150 150 150 149 150 151 150 151 154
312 310 307 305 305 306 307 307 306 305 303 301 299 297 294 291 288 286 287 293 301 307 305 300 296 292 287 281 277 276 281 286 290 299 308 301 291 287 288 288 288 285 274 236 220 259 288 300 330 333 291 306 334 14 66 93 112 125 132 132 131 131 133 136 138 140 142 145 147 148 148 148 149 149 149 150 150 150 151 150 150 150 150 150 151 154
309 306 303 302 303 306 308 308 307 304 302 300 298 297 296 294 292 290 290 292 295 295 293 291 289 288 287 281 276 274 278 282 286 292 297 294 289 286 287 286 287 287 280 247 232 240 267 281 317 335 334 338 0 22 50 75 97 115 127 131 132 133 135 136 137 139 142 145 146 146 146 147 147 148 149 149 150 151 151 150 150 151 152 151 152 153
306 302 299 299 302 306 308 308 307 305 303 302 301 300 299 297 295 293 291 290 290 288 286 285 284 285 287 284 279 277 280 281 285 291 295 294 291 289 291 290 288 286 282 255 233 244 275 279 293 321 350 15 22 29 43 64 89 110 124 129 133 136 139 140 140 141 143 144 144 144 145 146 147 148 149 150 151 152 152 151 152 153 154 153 153 153
302 298 297 299 304 307 308 309 308 307 306 305 304 302 300 298 296 293 291 290 289 289 287 284 282 281 281 281 281 281 282 284 287 292 294 293 292 291 291 288 285 284 278 250 209 216 264 264 246 217 152 49 31 27 41 66 93 114 125 129 131 134 139 142 143 143 143 143 143 143 145 146 148 149 151 153 154 155 154 152 152 154 155 155 155 155
298 296 298 303 307 308 308 308 308 309 308 307 305 303 301 299 296 294 292 292 291 291 290 287 284 281 278 275 275 277 281 285 288 291 291 290 289 288 286 282 280 278 274 259 230 219 218 227 219 202 177 130 36 18 37 82 105 117 124 127 129 132 137 142 144 144 143 142 142 143 145 147 149 151 153 155 156 156 153 151 152 154 156 156 156 157
296 296 302 307 309 309 307 307 308 310 310 308 306 304 302 299 297 295 294 294 294 293 292 290 288 285 280 276 273 272 276 281 285 287 288 287 284 281 277 276 274 272 265 257 245 229 214 200 196 192 178 142 100 42 66 104 108 110 114 121 126 130 135 141 145 145 143 142 143 145 147 149 151 152 155 156 157 155 151 150 152 155 157 158 158 160
296 300 306 309 310 309 308 308 309 310 309 308 306 304 302 299 298 297 296 295 295 294 293 292 291 289 285 280 275 273 275 280 285 287 288 287 283 276 270 270 270 266 259 251 242 232 210 190 183 183 172 114 97 120 136 127 116 108 108 117 123 128 134 141 145 146 144 144 145 147 150 152 153 154 156 158 158 155 150 148 150 154 157 158 160 161
299 303 307 310 311 310 308 307 308 308 308 306 304 302 301 300 299 298 296 296 296 296 294 293 291 289 287 283 279 278 280 286 291 294 294 293 286 278 270 267 265 261 254 244 232 221 205 191 182 178 162 129 108 121 136 138 131 123 118 116 117 123 132 140 145 147 147 146 146 148 151 154 156 156 158 159 159 156 151 149 150 152 154 155 157 159
301 303 306 309 310 309 307 305 305 306 306 305 304 302 301 301 300 299 298 298 299 298 297 295 292 289 285 282 280 282 288 295 301 304 305 303 296 286 275 266 260 255 245 230 216 205 196 189 178 166 154 142 137 141 145 144 143 138 131 120 102 103 122 135 143 147 149 149 149 150 153 156 158 158 159 160 160 157 155 152 152 153 155 155 155 155
303 305 307 310 310 309 306 305 305 305 305 306 305 304 303 302 301 301 301 302 302 301 301 298 294 289 285 282 283 287 297 307 315 318 320 317 309 297 282 265 252 237 216 199 190 187 185 177 165 153 150 147 146 147 148 154 156 151 142 133 115 111 119 129 138 145 149 151 152 153 155 157 158 159 160 160 161 160 159 156 155 155 157 158 158 156
305 306 308 309 309 307 306 306 307 308 308 307 306 304 303 303 303 303 303 304 304 304 303 299 294 288 284 284 288 295 308 322 331 336 337 335 329 319 300 263 228 204 185 172 165 164 167 163 158 154 154 153 149 142 142 151 154 151 141 131 123 117 113 119 132 141 145 148 151 153 154 155 155 156 157 158 160 161 161 160 159 159 160 161 161 161
306 306 306 306 305 305 305 307 309 311 312 310 308 306 304 304 304 304 304 303 303 303 302 298 293 288 283 284 291 302 318 334 346 354 357 356 355 355 4 47 151 166 167 158 146 138 140 141 141 146 152 154 152 145 136 137 131 126 127 132 130 123 104 105 123 134 138 142 147 150 151 152 152 152 153 155 157 159 161 161 162 163 163 164 164 164
305 306 306 306 306 306 308 310 312 313 313 311 309 307 305 305 305 305 304 303 301 301 299 297 293 287 278 278 290 307 323 339 356 9 14 16 16 21 35 56 83 111 132 132 124 117 114 110 113 125 140 147 147 143 138 130 120 117 123 130 130 126 122 127 128 128 131 136 142 146 150 151 150 149 147 147 149 153 156 160 162 164 166 167 168 167
307 307 307 308 309 309 310 311 313 314 312 311 309 307 306 306 306 306 305 303 301 299 297 296 293 287 274 272 295 314 325 339 354 9 21 28 34 40 48 56 68 82 93 97 99 101 99 93 98 111 123 127 128 127 126 125 120 113 108 109 110 112 118 128 131 130 129 132 137 142 148 150 148 142 137 136 138 143 149 154 157 160 163 167 168 169
308 309 308 309 309 308 309 311 313 313 312 311 309 308 308 307 307 306 304 301 298 296 295 295 292 285 276 292 312 328 334 340 349 1 14 27 39 49 56 61 67 73 79 82 87 91 93 95 100 108 111 109 103 101 109 117 118 111 104 103 104 107 113 121 128 133 136 137 139 143 147 149 145 138 130 130 133 139 144 150 153 155 159 163 165 166
309 309 308 308 307 307 308 311 313 314 312 311 310 309 309 308 308 307 304 301 298 297 297 296 293 286 284 308 332 347 345 345 349 356 5 18 32 45 56 62 68 72 75 77 79 81 84 89 97 106 111 106 94 83 92 103 109 113 114 114 113 112 113 117 127 137 143 144 145 146 149 148 143 137 134 134 135 139 144 149 153 156 159 161 163 164
309 308 308 307 306 306 309 312 314 314 312 311 310 310 311 310 310 309 307 305 302 301 300 299 296 293 300 330 357 12 9 2 358 358 2 12 24 38 51 60 66 70 73 75 75 75 75 78 85 95 103 104 104 100 95 96 102 111 118 120 120 119 118 124 134 142 147 149 151 153 155 153 148 142 139 137 136 139 146 154 160 162 165 167 169 169
309 308 306 306 306 307 309 313 314 313 311 311 311 311 312 313 314 313 310 307 303 301 299 300 301 304 315 353 15 23 21 14 8 5 6 10 18 28 40 50 59 66 70 72 73 72 71 69 69 74 87 97 105 109 107 102 104 110 116 120 123 124 125 131 139 145 149 152 155 159 161 162 161 157 151 142 137 140 149 158 166 171 175 177 179 180
309 307 305 305 305 307 310 312 313 312 311 311 312 313 314 316 316 315 312 309 304 301 302 306 309 314 331 7 24 28 25 18 12 10 9 10 14 18 23 30 38 47 56 64 66 65 65 63 61 60 64 80 97 109 112 111 109 109 110 115 122 128 130 134 140 146 151 153 157 161 164 165 166 165 159 149 143 145 151 159 167 174 182 186 188 190
308 308 307 306 306 308 310 312 312 312 311 312 313 314 315 316 316 316 315 311 308 308 311 315 320 332 11 33 36 34 31 24 17 11 9 12 14 16 16 17 17 15 17 28 26 20 27 45 52 51 51 53 69 103 124 122 116 111 106 111 122 129 131 135 141 146 150 153 157 161 163 163 163 163 161 154 148 144 150 163 171 176 184 189 193 195